Location: Newark
(40.9833°N, 0.0333°W)
Time: 15:05:37
(UTC+00:00)

nSIGHT-1 - Visible Passes

Search period start: 23 May 2019 00:00
Search period end: 02 June 2019 00:00
Orbit: 353 x 362 km, 51.6° (Epoch: 23 May)

Date Brightness Start Highest point End Pass type
(mag) Time Alt. Az. Time Alt. Az. Time Alt. Az.
23 May ? 20:03:13 10° NNW 20:04:30 12° N 20:05:48 10° NE visible
23 May ? 21:37:52 10° NW 21:40:32 34° NNE 21:40:32 34° NNE visible
24 May ? 20:30:58 10° NNW 20:33:10 18° NNE 20:35:21 10° ENE visible
24 May ? 22:05:55 10° WNW 22:07:23 26° WNW 22:07:23 26° WNW visible
25 May ? 20:58:46 10° NW 21:01:36 40° NNE 21:02:35 29° ENE visible
26 May ? 19:51:47 10° NNW 19:54:06 20° NNE 19:56:26 10° ENE visible
26 May ? 21:26:50 10° WNW 21:29:27 53° WSW 21:29:27 53° WSW visible
27 May ? 20:19:33 10° NW 20:22:26 48° NNE 20:24:40 15° ESE visible
27 May ? 21:55:45 10° W 21:56:21 13° WSW 21:56:21 13° WSW visible
28 May ? 20:47:39 10° WNW 20:50:29 44° SW 20:51:35 29° SSE visible
29 May ? 21:16:53 10° WSW 21:18:16 13° SW 21:18:32 12° SW visible
30 May ? 20:08:23 10° WNW 20:11:08 35° SW 20:13:50 10° SSE visible
31 May ? 20:38:27 10° WSW 20:38:48 10° SW 20:39:09 10° SW visible
